Location: Krakow
(50.0212°N, 19.9423°E)
Time: 19:12:25
(UTC+02:00)

NOAA 18 - Pass Details

Date: 24 April 2024
Orbit: 837 x 859 km, 98.9° (Epoch: 22 May)

Event Time Altitude Azimuth Distance (km) Brightness Sun altitude
Exits shadow 20:17:51 - 91° (E) 3,191 7.6 -5.1°
Reaches altitude 10° 20:21:15 10° 63° (ENE) 2,502 7.3 -5.5°
Maximum altitude 20:22:52 11° 46° (NE) 2,410 7.4 -5.8°
Drops below altitude 10° 20:24:29 10° 29° (NNE) 2,503 7.7 -6.0°
Sets 20:28:45 0° 358° (N) 3,441 8.9 -6.6°
